Temperature
16 16 16 16 16 16 16 16 16 15 15 15 15 15 15 15 15 15 15 15 15 15 15 15 15 14 14 14 14 14 14 14 14 13 13 13 13 13
16 16 16 16 16 16 16 16 15 15 15 15 15 15 15 15 15 15 15 15 14 14 14 14 14 14 14 14 14 14 13 13 13 13 13 13 13 13
16 15 15 15 15 15 15 15 15 15 15 15 15 14 14 14 14 14 14 14 14 14 14 14 14 13 13 13 13 13 13 13 13 13 12 12 12 12
15 15 15 15 15 15 15 15 15 15 15 14 14 14 14 14 14 14 13 13 13 13 13 13 13 13 13 13 12 12 12 12 12 12 12 12 12 11
15 15 15 15 15 15 15 14 14 14 14 14 14 13 13 13 13 13 13 13 12 12 12 12 12 12 12 12 12 12 11 11 11 11 11 11 11 11
14 14 14 14 14 14 14 14 14 14 13 13 13 13 13 12 12 12 12 12 12 12 11 11 11 11 11 11 11 11 11 11 10 10 10 10 10 10
14 14 14 14 14 13 13 13 13 13 13 13 13 12 12 12 12 12 12 11 11 11 11 11 11 10 10 10 10 10 10 10 9 9 9 9 9 9
14 13 13 13 13 13 13 13 13 12 12 12 12 12 11 11 11 11 11 11 11 10 10 10 10 10 9 9 9 9 9 9 9 9 8 8 8 8
13 13 13 12 12 12 12 12 12 12 12 11 11 11 11 11 11 10 10 10 10 10 10 9 9 9 8 8 8 8 8 8 8 8 8 7 7 7
12 12 12 12 12 12 12 12 12 11 11 11 11 10 10 10 10 10 10 9 9 9 9 9 8 8 8 8 8 8 8 7 7 7 7 7 7 7
12 11 11 11 11 11 11 11 11 10 10 10 10 10 10 9 9 9 9 9 9 8 8 8 8 8 7 7 7 7 7 7 6 6 6 6 6 6
11 11 11 11 10 10 10 10 10 10 10 9 9 9 9 9 9 9 9 9 8 8 8 8 8 7 7 7 6 6 6 6 6 6 6 6 6 6
11 10 10 10 10 10 10 9 9 9 9 9 9 9 8 8 8 8 8 8 8 8 7 7 7 7 7 6 6 6 6 6 6 5 5 5 5 5
10 10 9 9 9 9 9 9 9 8 8 8 8 8 8 8 8 8 8 8 7 7 7 7 7 7 7 6 6 6 6 6 5 5 5 5 5 5
9 9 9 9 9 9 8 8 8 8 8 8 8 8 7 7 7 7 7 7 7 7 7 7 7 7 6 6 6 6 5 5 5 5 5 5 5 5
9 9 8 8 8 8 8 8 8 8 8 8 7 7 7 7 7 7 7 7 7 7 6 6 6 6 6 6 6 5 5 5 5 5 5 5 4 4
8 8 8 8 8 8 8 8 7 7 7 7 7 7 7 7 7 7 6 6 6 6 6 6 6 6 6 6 5 5 5 5 5 5 5 5 4 4
8 8 8 8 7 7 7 7 7 7 7 7 7 7 6 6 6 6 6 6 6 6 6 6 6 6 6 6 5 5 5 5 5 5 5 4 4 4
8 8 8 7 7 7 7 7 7 7 7 6 6 6 6 6 6 6 6 6 6 6 6 5 5 5 5 5 5 5 5 5 5 5 5 5 5 4
8 7 7 7 7 7 7 7 7 6 6 6 6 6 6 6 6 6 6 6 6 5 5 5 5 5 5 5 5 5 5 5 5 5 5 5 5 5
7 7 7 7 7 7 6 6 6 6 6 6 6 6 6 6 6 6 6 5 5 5 5 5 5 5 5 5 5 5 5 5 5 5 5 5 5 5
7 7 7 7 7 7 6 6 6 6 6 6 6 6 6 6 5 5 5 5 5 5 5 5 5 5 5 5 5 5 5 5 5 5 5 5 5 4
7 7 7 7 7 6 6 6 6 6 6 6 6 6 6 5 5 5 5 5 5 5 5 5 5 5 5 5 5 5 5 5 5 5 5 5 4 4
Wind_Speed
2 2 2 2 2 3 3 3 3 2 2 1 1 2 2 2 3 3 3 4 4 3 1 1 1 2 2 3 3 4 4 4 4 3 3 2 3 4
1 2 2 2 1 2 2 2 3 3 2 1 1 1 3 3 4 4 4 6 7 6 5 3 2 1 1 0 1 1 1 1 1 1 1 1 1 1
1 1 1 1 1 1 1 1 1 2 3 2 1 1 2 3 4 5 5 6 7 8 6 5 4 3 3 2 2 2 2 2 2 2 1 1 1 1
0 1 1 0 0 0 1 1 1 2 2 2 1 1 2 2 3 3 4 5 7 9 8 8 8 7 6 6 6 6 5 4 4 4 3 3 3 3
1 1 1 2 2 1 1 2 1 1 2 2 1 1 2 2 3 3 4 5 6 8 9 11 11 11 10 9 10 9 8 8 7 6 6 6 5 5
3 3 3 3 3 2 2 2 2 2 2 2 1 1 2 2 2 2 3 3 4 6 8 9 11 12 12 11 11 10 10 10 10 9 9 8 7 6
5 5 6 7 7 5 3 3 3 3 3 2 2 2 2 1 1 1 1 1 3 4 4 6 7 8 9 10 10 10 11 10 10 10 9 8 8 7
6 6 7 8 10 11 11 10 7 4 3 2 2 2 1 1 1 0 0 1 1 3 2 4 5 5 7 8 10 10 10 10 10 10 9 9 9 9
6 6 6 7 7 7 10 12 11 11 7 4 3 2 1 1 0 1 1 2 1 1 1 2 3 4 5 7 9 10 10 10 10 10 10 10 10 10
6 6 6 5 6 6 7 8 8 7 6 5 4 2 2 1 1 1 2 3 3 3 3 2 2 2 3 5 8 9 10 10 9 10 10 9 9 9
7 7 6 5 6 7 7 7 6 6 9 10 9 8 9 8 5 3 3 3 2 2 3 1 1 2 2 3 5 7 8 8 8 7 7 7 7 6
5 6 8 7 7 7 5 5 6 4 5 6 8 9 9 9 8 4 2 2 2 2 2 1 1 1 1 2 2 3 4 5 5 5 5 5 5 4
5 5 5 9 9 9 7 5 4 4 5 5 5 6 6 6 6 6 4 2 2 2 1 1 1 1 1 1 1 2 2 2 3 3 4 4 3 2
4 3 5 8 9 9 7 7 7 6 5 5 5 5 5 5 5 6 7 7 5 3 2 2 1 1 1 1 1 2 2 3 2 2 3 3 3 2
4 6 8 10 9 8 10 10 7 5 5 5 5 4 3 4 4 5 7 8 9 9 7 4 2 2 2 1 1 1 1 2 2 2 2 2 2 2
5 7 10 11 9 8 7 7 6 5 4 4 3 3 3 4 5 4 4 4 5 5 7 8 5 2 1 1 1 1 1 1 2 2 2 2 2 2
5 5 5 5 6 6 5 5 5 5 5 4 4 4 4 4 4 4 3 4 4 3 4 5 6 4 1 1 1 1 1 1 1 1 1 2 3 3
6 5 4 4 4 4 4 4 4 4 4 3 4 4 3 4 4 4 3 3 3 3 3 3 3 3 2 1 1 1 1 2 2 1 1 2 3 3
5 4 3 3 3 3 3 3 3 3 3 3 4 3 3 3 3 3 3 3 2 2 2 2 2 2 3 3 3 2 2 2 2 2 2 2 3 5
3 3 2 2 2 2 2 2 2 2 3 3 3 3 2 2 2 2 2 2 2 2 2 3 2 2 1 2 3 3 4 4 2 3 3 3 4 6
2 2 1 1 1 1 1 1 1 2 2 2 2 2 2 2 2 2 1 2 1 2 3 3 3 4 2 1 2 3 3 4 6 4 3 3 4 4
2 1 1 1 1 1 1 1 1 1 1 1 1 1 1 1 1 1 1 2 2 2 3 3 4 2 1 2 3 4 4 5 5 6 8 8 3 4
2 2 1 1 1 1 1 1 0 0 0 0 0 1 1 1 1 2 2 2 2 3 3 3 3 2 2 2 3 4 5 5 4 4 4 6 10 15
Wind_Direction
221 218 228 240 227 228 217 202 197 238 282 283 307 3 12 24 15 31 32 30 24 26 17 307 265 256 259 261 255 244 222 213 213 212 214 237 253 254
215 212 232 247 241 237 223 217 208 206 238 272 285 348 18 26 33 42 39 40 42 39 36 33 34 29 11 327 264 268 246 192 173 196 203 239 286 291
230 207 248 259 233 243 211 191 197 193 221 274 311 358 19 27 31 40 45 55 51 48 49 51 53 58 64 67 75 86 95 95 93 86 79 55 31 23
190 116 298 303 360 10 131 142 171 186 190 241 315 6 17 26 34 39 50 54 57 53 56 57 59 63 69 79 85 84 80 72 66 66 66 71 78 75
53 70 44 70 59 51 82 98 115 133 160 186 264 21 33 26 30 40 51 51 57 53 58 59 60 64 67 71 76 77 77 75 74 75 75 73 71 72
59 63 66 74 73 62 66 68 86 93 100 115 94 45 37 21 38 40 41 37 40 47 56 59 59 62 62 64 67 69 71 74 76 75 73 72 71 71
61 59 67 73 73 72 75 72 85 93 94 93 83 61 38 28 10 360 43 43 48 39 50 47 50 53 52 56 63 66 68 69 71 73 72 71 72 72
69 61 62 61 69 71 72 71 74 85 93 88 79 76 22 337 326 3 98 58 49 13 34 44 47 53 48 53 58 63 67 69 68 68 68 67 69 72
68 65 64 58 61 69 67 66 62 61 70 97 93 68 19 327 54 79 82 73 69 13 44 55 43 55 47 52 59 63 66 69 70 70 71 69 67 71
62 64 70 59 61 74 76 70 61 51 56 69 78 55 46 53 95 115 118 98 79 48 41 64 38 40 45 46 57 62 62 62 64 69 71 69 67 67
58 58 66 64 58 70 81 79 65 48 57 67 69 63 60 61 77 92 88 95 72 42 26 62 49 38 37 36 43 52 57 59 58 59 60 61 61 65
59 53 58 63 59 62 82 86 75 46 44 48 49 49 52 54 58 66 92 104 88 54 17 44 53 58 54 16 13 34 50 47 43 43 41 46 52 55
74 59 53 61 66 66 72 78 85 74 58 56 52 45 43 43 44 47 56 81 86 65 36 70 68 63 69 350 342 6 23 23 17 15 18 23 32 50
83 70 64 68 68 66 69 68 69 67 65 59 53 42 35 30 29 40 53 59 60 68 76 97 90 101 89 64 19 350 4 18 15 3 4 13 30 30
85 84 79 74 69 63 59 59 60 63 66 63 54 37 25 23 33 43 48 54 58 56 53 53 74 98 101 87 39 8 355 354 0 357 351 356 356 354
77 73 71 68 65 60 54 51 54 59 69 65 51 38 38 45 45 40 44 44 54 43 36 42 49 74 79 76 95 47 360 331 333 341 334 324 323 307
89 72 64 60 59 56 52 47 46 51 55 53 58 56 49 50 44 35 42 49 57 42 24 19 23 39 71 117 77 1 343 339 332 336 323 324 312 295
91 83 76 73 70 65 62 52 45 44 46 56 60 58 56 54 51 44 48 53 55 40 29 16 13 30 41 51 226 265 317 316 315 305 288 299 307 305
90 92 88 83 75 73 68 61 51 41 45 60 62 56 55 55 56 48 43 43 41 30 17 11 18 27 14 358 343 247 251 297 300 296 286 279 289 302
93 105 103 95 89 86 79 66 58 55 55 52 52 50 49 53 49 40 38 38 31 16 6 7 7 355 320 311 305 295 260 246 265 283 289 284 284 288
113 117 123 125 117 105 84 70 69 61 52 47 44 44 47 53 43 32 27 18 18 359 341 334 325 310 275 271 296 311 304 271 248 254 274 290 305 308
148 154 163 160 154 147 121 97 76 65 53 42 24 17 27 40 10 347 342 335 325 317 309 318 335 340 326 313 313 315 319 325 313 278 253 241 272 298
186 194 203 201 190 178 166 155 154 258 236 242 293 316 326 322 310 305 307 307 306 312 314 323 337 337 327 310 310 312 313 317 321 321 311 284 262 263
Height
1559 1560 1560 1560 1561 1561 1562 1562 1562 1561 1560 1561 1561 1561 1560 1560 1559 1558 1557 1556 1556 1555 1554 1554 1554 1553 1553 1554 1554 1554 1555 1555 1555 1555 1556 1556 1556 1556
1556 1557 1557 1558 1558 1558 1558 1559 1559 1559 1558 1557 1558 1558 1558 1557 1556 1555 1554 1554 1553 1552 1551 1551 1550 1550 1550 1549 1550 1550 1550 1550 1551 1551 1551 1551 1551 1551
1554 1554 1554 1555 1555 1555 1555 1555 1555 1555 1555 1555 1555 1555 1555 1554 1554 1553 1552 1551 1550 1550 1549 1548 1547 1547 1546 1546 1546 1546 1546 1546 1546 1547 1547 1547 1547 1547
1551 1552 1552 1552 1552 1552 1552 1552 1552 1552 1552 1552 1552 1552 1552 1552 1551 1550 1549 1549 1548 1547 1547 1546 1545 1545 1544 1543 1543 1543 1543 1543 1542 1542 1542 1543 1542 1542
1550 1550 1550 1550 1549 1549 1549 1548 1549 1549 1549 1549 1549 1549 1549 1549 1548 1548 1547 1547 1546 1546 1545 1544 1543 1543 1542 1541 1540 1540 1540 1540 1539 1539 1539 1539 1539 1538
1548 1548 1548 1548 1547 1547 1546 1546 1546 1547 1547 1547 1547 1547 1547 1546 1546 1546 1545 1545 1545 1545 1544 1543 1542 1541 1541 1540 1539 1538 1538 1538 1537 1537 1536 1536 1536 1535
1547 1547 1547 1547 1546 1545 1545 1545 1545 1544 1544 1544 1544 1544 1544 1544 1544 1544 1543 1543 1543 1543 1542 1542 1541 1540 1540 1539 1538 1537 1536 1536 1535 1535 1534 1533 1533 1533
1546 1546 1546 1546 1545 1545 1544 1544 1544 1543 1543 1543 1543 1543 1542 1543 1543 1542 1542 1542 1541 1542 1541 1540 1540 1539 1539 1538 1537 1536 1536 1535 1534 1533 1532 1532 1531 1531
1546 1545 1545 1545 1545 1545 1544 1543 1543 1543 1543 1542 1542 1542 1542 1542 1541 1541 1541 1540 1540 1540 1540 1539 1539 1538 1538 1537 1537 1536 1535 1534 1533 1532 1531 1531 1530 1530
1546 1546 1546 1546 1545 1545 1544 1543 1543 1542 1542 1542 1542 1541 1541 1541 1540 1540 1540 1540 1539 1539 1539 1539 1538 1538 1538 1537 1537 1535 1535 1534 1533 1532 1531 1531 1530 1529
1547 1547 1547 1546 1546 1546 1545 1544 1543 1543 1543 1543 1542 1542 1541 1540 1540 1540 1539 1539 1538 1539 1539 1538 1538 1538 1538 1537 1537 1536 1535 1534 1533 1532 1532 1531 1530 1530
1548 1548 1548 1547 1547 1547 1546 1545 1544 1545 1544 1543 1543 1542 1541 1541 1540 1540 1539 1539 1538 1539 1538 1538 1538 1538 1538 1538 1537 1536 1535 1534 1534 1533 1532 1531 1530 1529
1549 1548 1549 1549 1548 1548 1547 1546 1546 1546 1545 1545 1544 1543 1542 1541 1541 1540 1540 1539 1539 1539 1539 1538 1538 1537 1537 1537 1537 1536 1535 1535 1534 1533 1532 1531 1530 1529
1550 1549 1550 1550 1549 1549 1548 1548 1548 1547 1547 1546 1545 1544 1544 1543 1542 1542 1541 1540 1540 1540 1539 1539 1538 1538 1537 1537 1537 1537 1536 1535 1534 1533 1532 1531 1530 1529
1551 1551 1551 1551 1550 1550 1550 1549 1549 1549 1548 1547 1547 1546 1546 1545 1544 1544 1543 1542 1542 1541 1540 1540 1539 1538 1538 1537 1537 1537 1536 1535 1534 1533 1532 1531 1530 1529
1552 1552 1552 1552 1552 1552 1551 1551 1551 1550 1550 1549 1549 1548 1548 1547 1546 1545 1544 1544 1543 1542 1542 1541 1540 1539 1538 1538 1537 1537 1536 1535 1535 1533 1532 1531 1530 1529
1553 1553 1553 1553 1553 1553 1553 1552 1552 1552 1551 1551 1550 1550 1549 1548 1548 1547 1546 1546 1545 1544 1543 1542 1541 1540 1539 1539 1538 1537 1536 1536 1534 1533 1532 1531 1530 1529
1555 1554 1554 1554 1554 1554 1554 1554 1554 1553 1553 1552 1552 1551 1551 1550 1550 1549 1548 1547 1546 1545 1544 1543 1542 1541 1541 1540 1539 1538 1537 1535 1534 1533 1532 1531 1529 1528
1556 1556 1556 1556 1556 1556 1556 1555 1555 1555 1554 1554 1553 1553 1552 1552 1551 1550 1549 1548 1547 1547 1545 1544 1543 1542 1541 1540 1539 1538 1537 1535 1534 1533 1532 1530 1529 1527
1557 1557 1557 1557 1557 1557 1557 1557 1556 1556 1555 1555 1554 1554 1553 1552 1552 1551 1550 1549 1548 1547 1546 1545 1544 1542 1541 1540 1539 1538 1537 1535 1533 1532 1531 1529 1527 1526
1558 1558 1558 1559 1559 1558 1558 1558 1557 1557 1556 1556 1555 1554 1554 1553 1552 1551 1550 1549 1548 1547 1546 1545 1544 1543 1541 1540 1538 1537 1536 1534 1532 1531 1529 1527 1526 1524
1558 1559 1559 1559 1559 1559 1559 1559 1558 1557 1557 1556 1555 1555 1554 1553 1552 1551 1550 1549 1548 1547 1545 1544 1543 1542 1540 1539 1537 1535 1534 1532 1531 1529 1528 1526 1524 1522
1559 1559 1559 1559 1559 1559 1559 1559 1558 1558 1557 1556 1556 1555 1554 1553 1552 1550 1549 1548 1547 1545 1544 1543 1541 1540 1538 1537 1535 1533 1532 1530 1528 1527 1526 1524 1522 1520